Satellite: MET-3/5
Catalog number: 21655
Epoch time:      10153.82211858
Element set:     827
Inclination:      082.5574 deg
RA of node:       318.7854 deg
Eccentricity:    0.0014230
Arg of perigee:   029.9227 deg
Mean anomaly:     330.2732 deg
Mean motion:   13.17021626 rev/day
Decay rate:        5.1e-07 rev/day^2
Epoch rev:           90378
Checksum:              290

Satellite: MET-2/21
Catalog number: 22782
Epoch time:      10153.75657435
Element set:     792
Inclination:      082.5479 deg
RA of node:       263.8872 deg
Eccentricity:    0.0023992
Arg of perigee:   083.8516 deg
Mean anomaly:     276.5387 deg
Mean motion:   13.83646160 rev/day
Decay rate:        6.9e-07 rev/day^2
Epoch rev:           84608
Checksum:              351

Satellite: OKEAN-4
Catalog number: 23317
Epoch time:      10154.69056637
Element set:     249
Inclination:      082.5404 deg
RA of node:       006.4590 deg
Eccentricity:    0.0020529
Arg of perigee:   288.7001 deg
Mean anomaly:     071.2003 deg
Mean motion:   14.82822342 rev/day
Decay rate:       2.61e-06 rev/day^2
Epoch rev:           84445
Checksum:              272

Satellite: NOAA-14
Catalog number: 23455
Epoch time:      10153.84618242
Element set:    0078
Inclination:      098.8784 deg
RA of node:       234.6883 deg
Eccentricity:    0.0008525
Arg of perigee:   277.8728 deg
Mean anomaly:     082.1483 deg
Mean motion:   14.13786470 rev/day
Decay rate:       -4.3e-07 rev/day^2
Epoch rev:           79547
Checksum:              341

Satellite: NOAA-15
Catalog number: 25338
Epoch time:      10153.82835032
Element set:    0397
Inclination:      098.6177 deg
RA of node:       141.0118 deg
Eccentricity:    0.0011608
Arg of perigee:   114.5585 deg
Mean anomaly:     245.6797 deg
Mean motion:   14.24830348 rev/day
Decay rate:       1.20e-06 rev/day^2
Epoch rev:           62670
Checksum:              297

Satellite: RESURS
Catalog number: 25394
Epoch time:      10153.59432009
Element set:    0520
Inclination:      098.3051 deg
RA of node:       172.4678 deg
Eccentricity:    0.0000415
Arg of perigee:   279.4870 deg
Mean anomaly:     080.6267 deg
Mean motion:   14.24201888 rev/day
Decay rate:       -6.0e-08 rev/day^2
Epoch rev:           61827
Checksum:              289

Satellite: FENGYUN1
Catalog number: 25730
Epoch time:      10153.88183859
Element set:    0058
Inclination:      098.7860 deg
RA of node:       119.2097 deg
Eccentricity:    0.0023144
Arg of perigee:   313.7777 deg
Mean anomaly:     046.1501 deg
Mean motion:   14.08204560 rev/day
Decay rate:      -4.43e-06 rev/day^2
Epoch rev:           56967
Checksum:              308

Satellite: OKEAN-0
Catalog number: 25860
Epoch time:      10154.56451468
Element set:       9
Inclination:      097.8310 deg
RA of node:       127.7264 deg
Eccentricity:    0.0001774
Arg of perigee:   096.5211 deg
Mean anomaly:     263.6193 deg
Mean motion:   14.73642113 rev/day
Decay rate:        5.0e-07 rev/day^2
Epoch rev:           58489
Checksum:              292

Satellite: NOAA-16
Catalog number: 26536
Epoch time:      10153.84737119
Element set:    0874
Inclination:      099.1697 deg
RA of node:       170.9783 deg
Eccentricity:    0.0010810
Arg of perigee:   022.8962 deg
Mean anomaly:     337.2686 deg
Mean motion:   14.12559793 rev/day
Decay rate:      -1.85e-06 rev/day^2
Epoch rev:           49980
Checksum:              349

Satellite: NOAA-17
Catalog number: 27453
Epoch time:      10153.73406699
Element set:    0877
Inclination:      098.4317 deg
RA of node:       204.7593 deg
Eccentricity:    0.0011913
Arg of perigee:   174.8258 deg
Mean anomaly:     185.3041 deg
Mean motion:   14.24163316 rev/day
Decay rate:       2.25e-06 rev/day^2
Epoch rev:           41264
Checksum:              306

Satellite: NOAA-18
Catalog number: 28654
Epoch time:      10153.90906613
Element set:    0362
Inclination:      098.9491 deg
RA of node:       100.2146 deg
Eccentricity:    0.0015304
Arg of perigee:   093.6994 deg
Mean anomaly:     266.5960 deg
Mean motion:   14.11361173 rev/day
Decay rate:       3.67e-06 rev/day^2
Epoch rev:           25942
Checksum:              306

Satellite: NOAA-19
Catalog number: 33591
Epoch time:      10153.96483857
Element set:    0559
Inclination:      098.7875 deg
RA of node:       096.3882 deg
Eccentricity:    0.0013690
Arg of perigee:   333.4216 deg
Mean anomaly:     026.6269 deg
Mean motion:   14.11058165 rev/day
Decay rate:       3.81e-06 rev/day^2
Epoch rev:           06790
Checksum:              338

/EX
SB KEPS @ AMSAT  $ORB10154.M
Orbital Elements  10154.MISC

HR AMSAT ORBITAL ELEMENTS FOR MANNED AND MISCELLANEOUS SATELLITES
FROM WA5QGD FORT WORTH,TX June 3, 2010
Send Subscribe/unsubscribe to KEPS at http://www.amsat.org/mailman/listinfo/kep
BID: ORB10154.M
TO ALL RADIO AMATEURS BT

Satellite: HUBBLE
Catalog number: 20580
Epoch time:      10154.88214637
Element set:     577
Inclination:      028.4705 deg
RA of node:       326.7173 deg
Eccentricity:    0.0003203
Arg of perigee:   058.4260 deg
Mean anomaly:     301.6674 deg
Mean motion:   15.00981809 rev/day
Decay rate:       5.21e-06 rev/day^2
Epoch rev:           90275
Checksum:              280

